Flag for Sweden Weather past 2 weeks in Gothenburg, Sweden

Now
32 °F

Sunny.


Feels Like: 32 °F
Forecast: 36 / 40 °F
Wind: No wind

Location: Gothenburg / Save

Current Time: Jan 25, 2015 at 3:44:02 PM

Latest Report: Jan 25, 2015 at 3:20 PM


Visibility: 10 mi

Pressure: 30.12 "Hg

Humidity: 87%

Dew point: 28 °F

Location of GothenburgLocation

Historic Weather in Gothenburg — Graph

°F

Gothenburg temperature yesterday

Maximum temperature yesterday: 36 °F (at 12:20 AM)
Minimum temperature yesterday: 32 °F (at 6:50 AM)
Average temperature yesterday: 34 °F

Past Weeks' High & Low Weather Summary

 TemperatureHumidityPressure
High45 °F (Jan 10, 2:20 PM)100% (Jan 12, 4:20 PM)30.21 "Hg (Jan 12, 4:20 PM)
Low18 °F (Jan 25, 9:20 AM)57% (Jan 11, 1:50 AM)28.71 "Hg (Jan 10, 6:26 PM)
Average36 °F86%29.65 "Hg
* Reported Jan 10 2:20 PM — Jan 25 2:50 PM, Gothenburg, Weather by CustomWeather, © 2014

Note: Actual official high and low records may vary slightly from our data, if they occured in-between our weather recording intervals... More about our weather records

Advertising

Gothenburg weather history for previous 24 hours

 ConditionsComfort  
Time TempWeatherWind HumidityBarometerVisibility
2:50 PM
Jan 25
34 °FSunny.No wind81%30.12 "Hg10 mi
2:20 PM36 °FSunny.2 mph75%30.12 "Hg10 mi
1:50 PM36 °FSunny.3 mph75%30.12 "Hg10 mi
1:20 PM32 °FSunny.5 mph100%30.12 "Hg10 mi
12:50 PM32 °FSunny.2 mph100%30.12 "Hg10 mi
12:20 PM32 °FSunny.2 mph93%30.12 "Hg10 mi
11:50 AM28 °FSunny.No wind93%30.09 "Hg10 mi
11:20 AM27 °FLight fog.1 mph93%30.09 "HgN/A
10:50 AM23 °FLight fog.No wind93%30.09 "HgN/A
10:20 AMN/ANo windN/AN/A1 mi
9:50 AM23 °FLight fog.No wind86%30.09 "Hg0 mi
9:20 AM18 °FClear.No wind93%30.07 "Hg0 mi
8:50 AM19 °FLight fog.No wind93%30.07 "HgN/A
8:20 AM23 °FLight fog.1 mph93%30.04 "HgN/A
7:50 AM21 °FLight fog.2 mph93%30.04 "HgN/A
7:20 AM21 °FLight fog.No wind100%30.04 "HgN/A
6:50 AM27 °FLight fog.1 mph93%30.01 "HgN/A
6:20 AM25 °FClear.2 mph93%30.01 "Hg10 mi
5:50 AM27 °FClear.No wind93%29.98 "Hg10 mi
5:20 AM25 °FClear.3 mph100%29.98 "Hg10 mi
4:20 AM32 °FClear.3 mph93%29.98 "Hg10 mi
3:20 AM30 °FClear.6 mph93%29.95 "Hg10 mi
2:20 AM36 °FClear.6 mph93%29.95 "Hg10 mi
1:50 AM36 °FPassing clouds.7 mph87%29.92 "HgN/A
1:20 AM36 °FClear.7 mph93%29.92 "Hg10 mi
12:50 AM36 °FClear.6 mph93%29.92 "Hg10 mi
12:20 AM36 °FClear.7 mph87%29.92 "Hg10 mi
11:50 PM
Jan 24
36 °FClear.7 mph93%29.92 "Hg10 mi
11:20 PM36 °FClear.8 mph93%29.92 "Hg10 mi
10:20 PM36 °FPassing clouds.7 mph93%29.92 "HgN/A
9:50 PM36 °FPassing clouds.9 mph93%29.89 "HgN/A
9:20 PM36 °FPassing clouds.9 mph93%29.89 "HgN/A
8:50 PM36 °FPassing clouds.9 mph93%29.89 "HgN/A
8:20 PM36 °FFog.8 mph93%29.89 "Hg6 mi
7:50 PM36 °FFog.8 mph93%29.89 "Hg4 mi
7:20 PM36 °FPassing clouds.9 mph93%29.89 "Hg4 mi
6:50 PM36 °FFog.12 mph93%29.86 "Hg3 mi
6:20 PM36 °FFog.9 mph93%29.86 "Hg3 mi
5:50 PM36 °FPassing clouds.12 mph93%29.86 "Hg2 mi
5:20 PM36 °FMostly cloudy.12 mph93%29.83 "Hg2 mi
4:50 PM36 °FLow clouds.10 mph93%29.83 "Hg2 mi
4:20 PM34 °FMostly cloudy.10 mph100%29.83 "Hg2 mi
3:50 PM34 °FLow clouds.13 mph100%29.83 "Hg2 mi
3:20 PM34 °FDrizzle. Low clouds.13 mph93%29.83 "Hg3 mi
Weather by CustomWeather, © 2014

See weather overviewHow to use our weather pages